Погода в Мукури

Бразилия     18°02′41″S   39°51′45″W
темп.,
°C
ветер,
м/с
пор.,
м/с
влажн.,
%
обл.,
%
осадки,
мм/ч
давл.,
гПа
погр.,
м
27 февраля, сб
сб2700:00+22ссв1193100 0.0 101423
03:00+22сз1194100 0.0 101324
06:00+22зюз119687 0.3 101430
09:00+26вюв127990 1.6 1015492
12:00+26в257990 1.9 1015733
15:00+30вюв455695 1.9 10131248
18:00+25вюв378190 0.0 1013442
21:00+22в129295 0.0 101426
28 февраля, вс
вс2800:00+22юв019494 0.9 101424
03:00+21зюз009774 2.4 101323
06:00+21зюз119787 0.0 101425
09:00+26в248190 1.0 1015702
12:00+28вюв347062 2.5 1014959
15:00+29юв356164 3.8 10121017
18:00+24вюв378167 0.1 1012367
21:00+23в299583 1.1 1013377
1 марта, пн
пн100:00+22всв1296100 0.2 101334
03:00+21с0095100 0.3 101223
06:00+21юз0195100 0.0 101323
09:00+27вюв236795 0.0 10141042
12:00+30вюв455250 0.0 10141541
15:00+29вюв455626 0.0 10121332
18:00+24вюв26810 0.0 1012272
21:00+23в269234 0.1 1014213
2 марта, вт
вт200:00+22всв1495100 0.1 1014123
03:00+21сз019678 0.1 101323
06:00+22зюз119272 0.1 101424
09:00+27ююв126985 0.6 1016765
12:00+31в234976 0.2 10161571
15:00+29в236188 0.8 10131042
18:00+25в387689 0.1 1013418
21:00+22в288895 0.1 1015284
3 марта, ср
ср300:00+22всв129138 0.0 101649
03:00+21ссз119426 0.0 101523
06:00+21юз129514 0.3 101629
09:00+27вюв017238 0.8 1018692
12:00+31в2251100 0.1 10171501
15:00+29в346082 0.4 1015947
18:00+25вюв27783 0.1 1014371
21:00+22всв12891 0.1 101690